Miscellaneous Local Product
Issued by NWS Hastings, NE

Home | Current Version | Previous Version | Graphics & Text | Print | Product List | Glossary On
Versions: 1 2 3 4 5 6 7 8 9 10 11 12 13 14 15 16 17 18 19 20 21 22 23 24 25 26 27 28 29 30 31 32 33 34 35 36 37 38 39 40 41 42 43 44 45 46 47 48 49 50
074
AXUS43 KGID 210102
MISGRI

GID CWA HOURLY WEATHER ROUNDUP
NATIONAL WEATHER SERVICE HASTINGS NE
800 PM CDT SUN MAY 20 2018

NOTE: "FAIR" INDICATES FEW OR NO CLOUDS BELOW 12,000 FEET WITH NO
SIGNIFICANT WEATHER AND/OR OBSTRUCTIONS TO VISIBILITY.

...SOUTH CENTRAL NEBRASKA...

CITY           SKY/WX    TMP DP  RH WIND       PRES   REMARKS
GRAND ISLAND   CLOUDY    54  51  90 N6        30.11S
KEARNEY        CLOUDY    55  51  86 NE5       30.11F
HASTINGS       CLOUDY    55  52  89 N7        30.10F
ORD            CLOUDY    55  50  83 NE5       30.09F
YORK           MOCLDY    54  54 100 N10       30.09F FOG
AURORA         CLOUDY    53  53 100 N7        30.10S
LEXINGTON      PTCLDY    57  52  84 E6        30.11S
HOLDREGE       CLOUDY    55  52  90 N3        30.11S
HEBRON         CLOUDY    55  54  94 N7        30.08S

...NEBRASKA PANHANDLE...

CITY           SKY/WX    TMP DP  RH WIND       PRES   REMARKS
CHADRON        PTSUNNY   60  40  47 E9        30.09F
ALLIANCE       MOSUNNY   58  38  47 SE6       30.11S
SCOTTSBLUFF    MOSUNNY   61  45  55 SE10      30.11S
SIDNEY         CLOUDY    57  43  59 S10       30.15R

...WESTERN AND NORTH CENTRAL NEBRASKA...

CITY           SKY/WX    TMP DP  RH WIND       PRES   REMARKS
VALENTINE      CLOUDY    58  43  57 E8        30.11S
AINSWORTH      CLOUDY    56  48  75 E6        30.11S
ONEILL         CLOUDY    57  50  77 E5        30.11F
BROKEN BOW     CLOUDY    57  51  80 E6        30.10S
IMPERIAL       CLOUDY    60  47  61 S5        30.14R
NORTH PLATTE   CLOUDY    63  47  55 E3        30.11R
MCCOOK         CLOUDY    59  51  75 E3        30.12R

...EASTERN NEBRASKA...

CITY           SKY/WX    TMP DP  RH WIND       PRES   REMARKS
NORFOLK        CLOUDY    52  50  93 N7        30.10F
SO SIOUX CITY  CLOUDY    54  53  97 N5        30.09F FOG
TEKAMAH        HVY RAIN  54  54 100 N12       30.07F FOG
COLUMBUS       CLOUDY    52  51  97 N8        30.10F FOG
ALBION         CLOUDY    53  50  89 N3        30.11S
OMAHA EPPLEY   CLOUDY    58  55  90 N8        30.06R
OFFUTT AFB     CLOUDY    58  55  92 N7        30.04F
MILLARD        CLOUDY    58  55  89 N5        30.06F
LINCOLN        CLOUDY    55  53  93 N9        30.08S FOG
NEBRASKA CITY  CLOUDY    60  58  94 N10       30.04S
BEATRICE       CLOUDY    57  55  95 N9        30.07R
FALLS CITY     CLOUDY    68  63  84 SE7       30.01S

...NORTHERN KANSAS...

CITY           SKY/WX    TMP DP  RH WIND       PRES   REMARKS
GOODLAND       PTCLDY    59  49  69 NE9       30.14R
HILL CITY      CLOUDY    60  54  80 N3        30.12R
NORTON         CLOUDY    55  52  88 NE3       30.11S
PHILLIPSBURG   CLOUDY    57  54  88 N7        30.11R
SMITH CENTER   CLOUDY    54  52  94 NE5       30.11R
HAYS           CLOUDY    60  53  77 N12       30.10R
RUSSELL        CLOUDY    62  56  80 N6        30.08R
CONCORDIA      CLOUDY    57  55  93 N8        30.07S
SALINA         CLOUDY    66  58  75 N12       30.05S
TOPEKA         CLOUDY    67  65  93 NW3       30.02S



USA.gov is the U.S. government's official web portal to all federal, state and local government web resources and services.